PAYLOAD C

导读

PAYLOAD C是中国于2013年7月19日发射的试验卫星,搭载长征-4C火箭自太原卫星发射中心升空,属于中国反卫星秘密系统试验的三颗小型卫星之一。该卫星具备轨道机动能力,外界推测其用于空间交会、在轨检测技术验证,相关技术属于两用空间技术,彰显了中国在空间技术领域的突破,也引发了国际社会对空间安全应用的讨论。

基本信息
目录编号:
39210
目录名称:
PAYLOAD C
国际标识:
2013-037C
轨道中心:
EARTH
卫星名称:
PAYLOAD C
卫星全名:
--
卫星状态:
在轨 (已飞行4805 天)
发射日期:
2013-07-19 UTC
国别 :
中国 (CN)
星等 :
--
该卫星已列入 空间交会检测服务 Space Conjunction Data Service (SCDS) ,当前飞行风险评估等级: 无高风险
轨道信息
数据来源 国际轨道数据
星历时间: 2026-09-14T07:10:40+0800
7小时前
查看轨道信息
半长轴: 7034.12km
偏心率: 0.0005205
轨道倾角: 98.109°
近地点辐角 214.950°
升交点赤经 259.620°
平近点角 145.137°
近地点: 652.321km
远地点: 659.645km
周期: 97.853分钟
每日圈数: 14.715946
详细信息
使用方式:
暂无
2D轨道图
3D轨道图
轨道高度分析图
轨道倾角分析图
轨道综合分析图
查看轨道综合分析图
交会数据列表
事件ID 空间交会对象 最接近时刻(TCA) 交会距离 交会风险概率(CRP) 交会风险指数(CRI) 操作
CDM_260915-064403-051503-921024
2026-09-15T
06:44:26+0000
2.355 km
极远距离
1.962068E-6 低风险 0.41
CDM_260916-210401-284903-921021
2026-09-16T
21:04:56+0000
2.679 km
极远距离
1.589488E-6 低风险 0.39
CDM_260915-040603-817503-921025
2026-09-15T
04:06:47+0000
2.881 km
极远距离
1.085223E-6 低风险 0.36
与全量物体交会距离演化趋势 订阅飞行安全评估服务
与全量物体交会风险概率演化趋势 订阅飞行安全评估服务